Location: Chèvreville
(49.1099°N, 2.8495°E)
Time: 12:21:05
(UTC+00:00)

BlueWalker 3 - Pass Details

Date: 29 January 2026
Orbit: 450 x 461 km, 53.2° (Epoch: 11 February)

Event Time Altitude Azimuth Distance (km) Brightness Sun altitude
Rises 19:04:43 0° 285° (WNW) 2,459 6.7 -23.6°
Reaches altitude 10° 19:06:56 10° 293° (WNW) 1,585 5.4 -23.9°
Enters shadow 19:09:18 33° 322° (NW) 789 3.2 -24.3°
